Weather History for CVOO - March, 2014

Change the Weather History Date:

Thursday, March 20, 2014

  Actual Average Record
Temperature  
Mean Temperature 40 °F -  
Max Temperature 50 °F - - ()
Min Temperature 30 °F - - ()
Degree Days  
Heating Degree Days 25    
Moisture  
Dew Point 30 °F    
Average Humidity 69    
Maximum Humidity 94    
Minimum Humidity 40    
Precipitation  
Precipitation 0.00 in - - ()
Sea Level Pressure  
Sea Level Pressure 30.28 in    
Wind  
Wind Speed 2 mph ()    
Max Wind Speed 7 mph    
Max Gust Speed -    
T = Trace of Precipitation, MM = Missing Value Source: Averaged Metar Reports

Daily Weather History Graph

Daily Weather History Graph

Search for Another Location

Airport or City:

Trip Planner

Search our weather history database for the weather conditions in past years. The results will help you decide how hot, cold, wet, or windy it might be!

Date:

Astronomy

Mar. 20, 2014 Rise Set
Actual Time 7:17 AM PDT 7:27 PM PDT
Civil Twilight 6:46 AM PDT 7:59 PM PDT
Nautical Twilight 6:08 AM PDT 8:36 PM PDT
Astronomical Twilight 5:30 AM PDT 9:15 PM PDT
Moon No Moon Rise 9:07 AM PDT (3/20)
Length of Visible Light 13h 13m
Length of Day
12h 10m
Waning Gibbous, 83% of the Moon is Illuminated
Mar 20
Waning Gibbous
Mar 23
Last Quarter
Mar 30
New
Apr 7
First Quarter
Apr 15
Full

Hourly Weather History & Observations

Time (PDT) Temp. Windchill Dew Point Humidity Pressure Visibility Wind Dir Wind Speed Gust Speed Precip Events Conditions
12:00 AM 39.2 °F 37.0 °F 30.6 °F 71% 30.16 in - SSE 3.5 mph - N/A   Unknown
1:00 AM 38.1 °F - 30.6 °F 74% 30.17 in - NE 1.2 mph - N/A   Unknown
2:00 AM 37.0 °F - 29.8 °F 75% 30.19 in - South 1.2 mph - N/A   Unknown
3:00 AM 37.0 °F 34.5 °F 29.8 °F 75% 30.20 in - SSE 3.5 mph - N/A   Unknown
4:00 AM 36.1 °F 32.3 °F 29.3 °F 76% 30.22 in - SE 4.6 mph - N/A   Unknown
5:00 AM 34 °F - 30 °F 78% 30.22 in - NNE 1.2 mph - -  
5:00 AM 33.8 °F - 29.7 °F 85% 30.22 in - NNE 2.3 mph - N/A   Unknown
6:00 AM 32.4 °F - 29.5 °F 89% 30.24 in - NW 1.2 mph - N/A   Unknown
7:00 AM 30.4 °F - 28.0 °F 91% 30.26 in - Calm Calm - N/A   Unknown
8:00 AM 30.6 °F - 28.8 °F 93% 30.27 in - Calm Calm - N/A   Unknown
9:00 AM 40.5 °F - 30.7 °F 68% 30.28 in - Calm Calm - N/A   Unknown
10:00 AM 42.4 °F - 29.8 °F 61% 30.30 in - East 1.2 mph - N/A   Unknown
11:00 AM 45 °F - 28 °F 40% 30.30 in - ESE 2.3 mph - -  
11:00 AM 45.3 °F - 28.4 °F 52% 30.30 in - East 1.2 mph - N/A   Unknown
12:00 PM 46.2 °F - 25.7 °F 45% 30.31 in - ENE 1.2 mph - N/A   Unknown
1:00 PM 48.4 °F - 26.6 °F 43% 30.30 in - North 6.9 mph - N/A   Unknown
2:00 PM 47.5 °F - 25.5 °F 42% 30.31 in - North 4.6 mph - N/A   Unknown
3:00 PM 50.2 °F - 28.6 °F 43% 30.31 in - North 6.9 mph - N/A   Unknown
4:00 PM 45.7 °F 42.0 °F 30.4 °F 55% 30.32 in - North 6.9 mph - N/A   Unknown
5:00 PM 44 °F - 31 °F 49% 30.32 in - North 3.5 mph - -  
5:00 PM 44.4 °F 42.9 °F 31.1 °F 60% 30.32 in - North 3.5 mph - N/A   Unknown
6:00 PM 44.8 °F - 32.7 °F 63% 30.32 in - SSW 2.3 mph - N/A   Unknown
7:00 PM 41.9 °F - 34.0 °F 73% 30.32 in - South 2.3 mph - N/A   Unknown
8:00 PM 39.4 °F - 33.6 °F 80% 30.32 in - SSW 2.3 mph - N/A   Unknown
9:00 PM 35.4 °F - 32.0 °F 87% 30.34 in - North 1.2 mph - N/A   Unknown
10:00 PM 34.2 °F - 32.4 °F 93% 30.35 in - North 1.2 mph - N/A   Unknown
11:00 PM 32 °F - 30 °F 91% 30.36 in - Calm Calm - -  
11:00 PM 32.0 °F - 30.4 °F 94% 30.36 in - Calm Calm - N/A   Unknown